Starlink 11646

operational
NORAD ID: 63186 Int'l Des: 2025-048 Owner: SPXS Country: US Constellation: starlink
LEOCIRCULAR

About Starlink 11646

Description loading...

Live Position

Loading 3D Globe...

Upcoming Passes

Altitude History

Altitude vs Time

uPlot chart will show altitude changes over time

Two-Line Element Set

1 63186U 25048D 26095.44840743 .00230447 00000-0 17489-2 0 9990
2 63186 42.9992 158.2441 0000715 250.9428 109.1362 15.70855273 62732
Epoch: Apr 5, 2026 • Age: 7 hours

Current Status

Altitude 357.2 km
Velocity 7.70 km/s
Sub-Earth Point 31.59°N, 159.68°W
Launch Date Mar 13, 2025
Age 1 years
Type internet

Technical Details

Classification Payload
Mass 960.00 kg
Dry Mass 910.00 kg
Total Mass 960.00 kg
Length 0.30 m
Diameter 4.10 m
Span 29.00 m
Shape Box + pan
Manufacturer SPXS
Bus Type Starlink V2MD
Phase Status In Orbit
Owner/State SPXS/US

Large Constellations

Loading constellations...